Regional Weather Roundup
Issued by NWS

Home | Current Version | Previous Version | Text Only | Print | Product List | Glossary Off
Versions: 1 2 3 4 5 6 7 8 9 10 11 12 13 14 15 16 17 18 19 20 21 22 23 24 25 26 27 28 29 30 31 32 33 34 35 36 37 38 39 40 41 42 43 44 45 46 47 48 49 50

000
ASUS43 KLMK 232210
RWRKY
KENTUCKY REGIONAL WEATHER ROUNDUP
NATIONAL WEATHER SERVICE LOUISVILLE KY
600 PM EDT WED JUL 23 2014

NOTE "FAIR" INDICATES FEW OR NO CLOUDS BELOW 12,000 FEET
WITH NO SIGNIFICANT WEATHER AND/OR OBSTRUCTIONS TO VISIBILITY.

KYZ001>023-026-027-061>063-070>075-232300-
WESTERN AND SOUTH CENTRAL KENTUCKY

CITY           SKY/WX    TMP DP  RH WIND       PRES   REMARKS
PADUCAH        CLOUDY    79  70  74 N6        30.00R
HENDERSON      CLOUDY    81  70  69 W8        29.98S
OWENSBORO      CLOUDY    82  70  67 N10       29.99S
HOPKINSVILLE   PTSUNNY   88  72  58 W9        29.96S HX  94
BOWLING GREEN  CLOUDY    90  70  51 W9        29.95S HX  95
GLASGOW        PTSUNNY   77  67  69 CALM      29.95F
$$

KYZ024-025-028>034-038-045-046-053-232300-
NORTH CENTRAL KENTUCKY

CITY           SKY/WX    TMP DP  RH WIND       PRES   REMARKS
LOUISVILLE/SDF PTSUNNY   85  68  56 W7        29.96S
LOUISVILLE/LOU PTSUNNY   85  68  56 VRB6      29.96F
FORT KNOX      CLOUDY    82  72  71 NW7       29.96S
$$

KYZ035>037-039>044-047>052-055>060-089>105-232300-
NORTHEAST KENTUCKY

CITY           SKY/WX    TMP DP  RH WIND       PRES   REMARKS
LEXINGTON      PTSUNNY   86  70  58 W8        29.98F HX  90
COVINGTON      CLOUDY    81  70  69 E8        29.98S
FRANKFORT      MOSUNNY   84  69  60 W7        29.96F
$$

KYZ054-064>069-076>088-106>120-232300-
SOUTHEAST KENTUCKY

CITY           SKY/WX    TMP DP  RH WIND       PRES   REMARKS
JACKSON        TSTM      79  72  79 VRB3      30.00R
LONDON         PTSUNNY   79  67  66 S8        30.00F
SOMERSET       PTSUNNY   84  68  58 S8        29.97F
MIDDLESBORO    CLOUDY    77  69  76 CALM      30.02F
MONTICELLO     PTCLDY    90  71  53 CALM      29.98F HX  96
$$




USA.gov is the U.S. government's official web portal to all federal, state and local government web resources and services.